Printer-friendly version

IAU Minor Planet Center

Minor Planet Center

MPEC 2003-F58 : 2003 FR6

The following Minor Planet Electronic Circular may be linked-to from your own Web pages, but must not otherwise be redistributed electronically.


Read MPEC 2003-F57 Read MPEC 2003-F59


M.P.E.C. 2003-F58                                Issued 2003 Mar. 29, 14:46 UT

     The Minor Planet Electronic Circulars contain information on unusual
         minor planets and routine data on comets.  They are published
   on behalf of Commission 20 of the International Astronomical Union by the
          Minor Planet Center, Smithsonian Astrophysical Observatory,
                          Cambridge, MA 02138, U.S.A.

             Prepared using the Tamkin Foundation Computer Network

                              MPC@CFA.HARVARD.EDU
          URL http://cfa-www.harvard.edu/iau/mpc.html  ISSN 1523-6714

                                   2003 FR6

Observations:
     K03F06R* C2003 03 28.23083 11 50 31.84 -03 40 38.8          19.4 V      691
     K03F06R  C2003 03 28.25812 11 50 30.09 -03 38 38.9          19.2 V      691
     K03F06R  C2003 03 28.28521 11 50 28.40 -03 36 40.2          19.7 V      691
     K03F06R  C2003 03 28.93779 11 49 50.87 -02 48 31.4                      246
     K03F06R  C2003 03 28.93850 11 49 50.90 -02 48 28.1                      246
     K03F06R  C2003 03 28.93918 11 49 50.84 -02 48 25.0                      246
     K03F06R  C2003 03 28.93992 11 49 50.81 -02 48 22.9                      246
     K03F06R  C2003 03 28.94054 11 49 50.74 -02 48 19.6                      246
     K03F06R  C2003 03 28.94127 11 49 50.64 -02 48 15.5                      246
     K03F06R  C2003 03 28.94200 11 49 50.66 -02 48 12.8                      246
     K03F06R  C2003 03 28.94282 11 49 50.61 -02 48 09.2                      246
     K03F06R  C2003 03 28.95013 11 49 50.08 -02 47 36.8                      557
     K03F06R  C2003 03 28.95141 11 49 50.06 -02 47 30.7                      557
     K03F06R  C2003 03 28.95269 11 49 49.99 -02 47 25.5                      557
     K03F06R  C2003 03 29.01701 11 49 47.17 -02 42 16.5          18.7 R      809
     K03F06R  C2003 03 29.01844 11 49 47.10 -02 42 10.9          18.3 R      809
     K03F06R  C2003 03 29.01987 11 49 47.00 -02 42 04.2          18.6 R      809
     K03F06R  C2003 03 29.19000 11 49 36.80 -02 29 41.2                      446
     K03F06R  C2003 03 29.20134 11 49 35.99 -02 28 50.1          20.6 R      446
     K03F06R  C2003 03 29.22254 11 49 34.95 -02 27 15.8          22.4 V      291
     K03F06R  C2003 03 29.22683 11 49 34.61 -02 26 56.0          22.5 V      291
     K03F06R  C2003 03 29.23092 11 49 34.43 -02 26 38.6          22.2 V      291
     K03F06R  C2003 03 29.27159 11 49 31.56 -02 23 37.7          18.4 R      649
     K03F06R  C2003 03 29.27396 11 49 31.42 -02 23 27.0          18.4 R      649
     K03F06R  C2003 03 29.27634 11 49 31.29 -02 23 16.5          18.4 R      649

Observer details:
246 Klet Observatory-KLENOT.  Observers J. Ticha, M. Tichy, M. Kocer.  1.06-m
    KLENOT Telescope + CCD.
291 LPL/Spacewatch II.  Observer A. E. Gleason.  1.8-m f/2.7 reflector + CCD.
446 Kingsnake Observatory.  Observer J. McClusky.  0.45-m f/4.5 Newtonian
    + CCD.
557 Ondrejov.  Observer L. Sarounova.  0.65-m f/3.6 reflector + CCD.
649 Powell Observatory, Louisburg.  Observer R. Fredrick.  0.75-m Newtonian
    + CCD.
691 Steward Observatory, Kitt Peak.  Observer M. T. Read.  0.9-m f/3 reflector
    + CCD.
809 European Southern Observatory, La Silla.  Observers G. Masi, R. Michelsen,
    O. Hainaut.  1.54-m Danish Telescope + CCD.

Orbital elements:
2003 FR6
Epoch 2003 Mar. 22.0 TT = JDT 2452720.5                 MPC
M 323.66106              (2000.0)            P               Q
n   0.34552708     Peri.   72.99560     -0.21237103     +0.97471001
a   2.0113207      Node   186.17137     -0.94003732     -0.18433645
e   0.4108553      Incl.   40.32163     +0.26688644     +0.12633474
P   2.85           H   19.9           G   0.15
From 25 observations 2003 Mar. 28-29.

Ephemeris:
2003 FR6                 a,e,i = 2.01, 0.41, 40                  q = 1.1850
Date    TT    R. A. (2000) Decl.     Delta      r     Elong.  Phase     V
2003 03 22    11 56.38   -10 47.2    0.557    1.547   169.4     6.8    20.1
2003 04 01    11 46.94   +01 04.3    0.505    1.494   165.8     9.5    19.9
2003 04 11    11 38.42   +14 12.7    0.495    1.443   147.0    22.2    20.2
2003 04 21    11 33.16   +26 08.6    0.521    1.393   129.1    34.0    20.6
2003 05 01    11 32.73   +35 27.8    0.571    1.347   114.3    43.0    21.0
2003 05 11    11 37.93   +42 10.3    0.633    1.305   102.8    49.0    21.3
2003 05 21    11 48.69   +46 51.3    0.696    1.268    94.0    52.8    21.6
2003 05 31    12 04.51   +50 03.7    0.755    1.236    87.4    55.0    21.8
2003 06 10    12 24.91   +52 10.8    0.805    1.212    82.6    56.2    21.9
2003 06 20    12 49.28   +53 26.8    0.844    1.195    79.3    56.7    22.0
2003 06 30    13 17.16   +53 57.8    0.870    1.186    77.5    56.8    22.0

Brian G. Marsden             (C) Copyright 2003 MPC           M.P.E.C. 2003-F58

Read MPEC 2003-F57 Read MPEC 2003-F59


Our Web policy. Index to the CBAT/MPC/ICQ pages.


Valid HTML 4.01!